CZ-6A DEB

Satellite information

Favourite Embed

Satellite Type and Status

DEBRISIN ORBIT

Key statistics

Satellite CZ-6A DEB at a glance.

Uptime

445

Days in orbit

Revolutions

≈ 14.5

Per day

Orbit

LEO

Low Earth Orbit

Inclination

89.0

Latest

Satellite identification and parameters

Extended collection of information and parameters for CZ-6A DEB.

Object identification

Identified? True

Debris? True

Object name: CZ-6A DEB

International designator: 2024-140GZ

Object number (NORAD): 60822

Object ID (CCSDS): 60822

Country: PEOPLES REPUBLIC OF CHINA (PRC)

Current information (Y/N): Y

RCS size: SMALL

Orbital parameters

Period: 99.226 minutes

Inclination: 89.0043 deg

SMA: 7099.74 km

Apoapsis: 805.293 km

Periapsis: 637.917 km

RAAN: 299.06 deg

Eccentricy: 0.01178748

Argument of periapsis: 3.1067 deg

Mean anomaly: 357.0845 deg

Mean motion: 14.51239501 rev/day

Mean motion (dot): 0.00000735 rev/day2

B* drag term: 0.00016505466 1/REarth

Two-line elements (TLE)

Creation date: Oct. 25, 2025, 3:11 a.m.

Reference frame: TEME

Reference center: EARTH

Epoch: Oct. 24, 2025, 10:43 p.m. UTC

TLE line 0: 0 CZ-6A DEB

TLE line 1: 1 60822U 24140GZ 25297.94659606 .00000735 00000-0 16505-3 0 9994

TLE line 2: 2 60822 89.0043 299.0600 0117875 3.1067 357.0845 14.51239501 63457

Live tracking on map

Real-time ground track for satellite CZ-6A DEB.

In-orbit conjunctions

A list of the most updated potential collisions computed for object CZ-6A DEB.

Target Orbit TCA Probability of collision Miss distance Type
NOAA 16 DEB SSO 2025-08-10 09:42:49 0.0002046783 53.0 (m) DEBRIS
FENGYUN 1C DEB SSO 2025-07-01 12:56:47 0.000103323 141.0 (m) DEBRIS
FENGYUN 1C DEB SSO 2025-06-13 15:44:27 0.0001159099 236.0 (m) DEBRIS
FENGYUN 1C DEB SSO 2025-02-02 22:55:12 0.0001916443 742.0 (m) DEBRIS
FENGYUN 1C DEB SSO 2025-01-22 21:18:56 0.0002912441 327.0 (m) DEBRIS

Associated space launch

18 Low Earth Orbit communication satellites with Ku, Q and V band payloads for the G60 constellation operated by Shanghai Spacecom Satellite Technology (SSST) with funding backed by the Shanghai local government. Initial constellation will consist of 1296 satellites by 2027 with long term plans to expand it to 12000 satellites.

CZ-6A DEB was lifted into orbit during the mission ‘Long March 6A | G60 Polar Group 01’, on board a Long March 6A space rocket.

The launch took place on Aug. 6, 2024, 6:42 a.m. from Launch Complex 9A.

For more information about the launch, click the button.

Launch to space Long March 6A | G60 Polar Group 01
Long March 6A | G60 Polar Group 01

Agency: N/A

Status: Launch Successful

Launch date: Aug. 6, 2024, 6:42 a.m. UTC

Rocket: Long March 6A

Launch pad: Launch Complex 9A

Location: Taiyuan Satellite Launch Center, People's Republic of China

...

Latest news about this satellite

News about space launch
Brightness of first Chinese broadband constellation satellites alarms astronomers

The first satellites of a Chinese broadband constellation are significantly brighter than those of Western systems, posing a new challenge for astronomers.

News about space launch
Chinese rocket stage breaks up into cloud of more than 700 pieces of space debris

HELSINKI — A Chinese Long March 6A rocket’s upper stage has fragmented into a cloud of over 700 pieces of space debris, adding to concerns about long-term orbital safety. China […]

News about space launch
China's Thousand Sails Megaconstellation Kicks Off with Dangerous Debris Field

China's Thousand Sails Megaconstellation Kicks Off with Dangerous Debris Field


Newsletter sign-up

Weekly statistics, charts and insights to help you stay on top of the space industry.